Regional Weather Roundup
Issued by NWS

Home | Current Version | Previous Version | Graphics & Text | Print | Product List | Glossary On
Versions: 1 2 3 4 5 6 7 8 9 10 11 12 13 14 15 16 17 18 19 20 21 22 23 24 25 26 27 28 29 30 31 32 33 34 35 36 37 38 39 40 41 42 43 44 45 46 47 48 49 50
000
ASUS45 KABQ 190001
RWRNM
NEW MEXICO REGIONAL WEATHER ROUNDUP
NATIONAL WEATHER SERVICE ALBUQUERQUE NM
500 PM MST SAT FEB 18 2017

NOTE: "FAIR" MEANS FEW OR NO CLOUDS BELOW 12,000 FEET AGL WITH NO
       SIGNIFICANT WEATHER OR OBSTRUCTIONS TO VISION.

      THIS PRODUCT IS RELEASED AS TWO VERSIONS.  ONE VERSION NEAR
      THE TOP OF THE HOUR CONTAINING PRELIMINARY DATA FROM ALBUQUERQUE
      AND OTHER STATIONS.  A FINAL VERSION WITH ADDITIONAL DATA IS
      ISSUED ABOUT 10 MINUTES AFTER THE HOUR.

NMZ501-503-504-510>518-190100-
NORTHWEST PLATEAU/NORTHCENTRAL MOUNTAINS

CITY           SKY/WX    TMP DP  RH WIND       PRES   REMARKS
FARMINGTON     FAIR      57  27  31 SE13      29.68S
6HR MIN TEMP:  48; 6HR MAX TEMP:  59;

LOS ALAMOS     FAIR      51  28  41 S13       29.78S
SANTA FE       FAIR      53  30  41 W20G25    29.74R
6HR MIN TEMP:  53; 6HR MAX TEMP:  62;

TAOS             N/A     54  28  37 SW9       29.76S
ANGEL FIRE     FAIR      46  25  43 S22       29.83S

$$
NMZ402-403-502-505>509-190100-
WESTCENTRAL MOUNTAINS/SOUTHWEST MOUNTAINS

CITY           SKY/WX    TMP DP  RH WIND       PRES   REMARKS
GALLUP         FAIR      53  27  36 SE13      29.71S
6HR MIN TEMP:  48; 6HR MAX TEMP:  55;

GRANTS         FAIR      50  30  45 SE12G18   29.75S
SILVER CITY    FAIR      53  31  43 SE16      29.71F

$$
NMZ407-409-411-412-190100-
SOUTHERN DESERTS

CITY           SKY/WX    TMP DP  RH WIND       PRES   REMARKS
DEMING         CLOUDY    60  34  37 E10       29.67F
6HR MIN TEMP:  56; 6HR MAX TEMP:  62;

LAS CRUCES     FAIR      61  32  34 SE8       29.71F
HOLLOMAN AFB   MOCLDY    62  33  34 W6        29.74F
ALAMOGORDO     FAIR      63  32  31 S9        29.73S
T OR C         FAIR      58  33  39 S8        29.72F
6HR MIN TEMP:  49; 6HR MAX TEMP:  60;


$$
NMZ519>523-190100-
CENTRAL VALLEYS/CENTRAL HIGHLANDS

CITY           SKY/WX    TMP DP  RH WIND       PRES   REMARKS
ALBUQUERQUE    CLOUDY    54  31  41 S13       29.76R
6HR MIN TEMP:  50; 6HR MAX TEMP:  57;

DOUBLE EAGLE   MOCLDY    52  30  43 S15       29.77S
MORIARTY ARPT  FAIR      57  17  21 S15       29.78R
6HR MIN TEMP:  55; 6HR MAX TEMP:  63;

CLINES CORNERS FAIR      53  26  35 S18G25    29.79S
6HR MIN TEMP:  53; 6HR MAX TEMP:  60;

BELEN          FAIR      54  30  40 S10       29.74F
6HR MIN TEMP:  50; 6HR MAX TEMP:  59;

SOCORRO        FAIR      55  32  42 S12       29.73F
6HR MIN TEMP:  51; 6HR MAX TEMP:  57;


$$
NMZ524>526-539-540-190100-
SOUTHCENTRAL MOUNTAINS

CITY           SKY/WX    TMP DP  RH WIND       PRES   REMARKS
RUIDOSO        NOT AVBL

$$
NMZ527>531-190100-
NORTHEAST HIGHLANDS/NORTHEAST PLAINS

CITY           SKY/WX    TMP DP  RH WIND       PRES   REMARKS
LAS VEGAS      FAIR      52  27  38 SE13      29.79S
6HR MIN TEMP:  52; 6HR MAX TEMP:  59;

RATON          FAIR      55  20  25 S21       29.76R
6HR MIN TEMP:  53; 6HR MAX TEMP:  63;

CLAYTON        FAIR      61  29  29 S9        29.74F
6HR MIN TEMP:  61; 6HR MAX TEMP:  67;


$$
NMZ532>537-190100-
EASTCENTRAL PLAINS

CITY           SKY/WX    TMP DP  RH WIND       PRES   REMARKS
TUCUMCARI      FAIR      69  29  22 S9        29.70R
6HR MIN TEMP:  60; 6HR MAX TEMP:  75;

CANNON AFB     FAIR      64  34  32 SE9       29.73R
6HR MIN TEMP:  61; 6HR MAX TEMP:  73;

CLOVIS AIRPORT FAIR      64  34  32 SE14      29.74R

$$
NMZ028-029-538-190100-
SOUTHEAST PLAINS

CITY           SKY/WX    TMP DP  RH WIND       PRES   REMARKS
ROSWELL        FAIR      68  32  26 S10         N/A
6HR MIN TEMP:  61; 6HR MAX TEMP:  73;

ARTESIA        FAIR      68  32  26 S13G18    29.69S
CARLSBAD       FAIR      71  28  20 SE8       29.67F
6HR MIN TEMP:  65; 6HR MAX TEMP:  75;

HOBBS          CLEAR     68  30  24 S12       29.74R


$$




USA.gov is the U.S. government's official web portal to all federal, state and local government web resources and services.